| time (UTC) | temp F | wind direction | speed MPH | gust MPH | rain 1hr in | rain 24hr in | rain mn in | humidity % | barometer mb |
| 20260831030508 | 66 | 224 | 5.0 | 5.0 | 0.00 | 0.00 | 0.00 | 91 | 1017.1 |
| 20260831030007 | 66 | 223 | 5.0 | 5.0 | 0.00 | 0.00 | 0.00 | 91 | 1017.1 |
| 20260831025507 | 66 | 239 | 4.0 | 5.0 | 0.00 | 0.00 | 0.00 | 91 | 1017.1 |
| 20260831025007 | 66 | 238 | 2.0 | 5.0 | 0.00 | 0.00 | 0.00 | 91 | 1017.1 |
| 20260831024507 | 66 | 221 | 3.0 | 5.0 | 0.00 | 0.00 | 0.00 | 90 | 1017.1 |
| 20260831024007 | 66 | 205 | 5.0 | 5.0 | 0.00 | 0.00 | 0.00 | 90 | 1017.1 |
| 20260831023507 | 66 | 218 | 5.0 | 5.0 | 0.00 | 0.00 | 0.00 | 90 | 1017.1 |
| 20260831023007 | 66 | 220 | 5.0 | 7.0 | 0.00 | 0.00 | 0.00 | 90 | 1017.1 |
| 20260831022506 | 66 | 209 | 5.0 | 7.0 | 0.00 | 0.00 | 0.00 | 90 | 1017.1 |
| 20260831022007 | 66 | 220 | 5.0 | 7.0 | 0.00 | 0.00 | 0.00 | 90 | 1017.0 |
| 20260831021506 | 67 | 220 | 7.0 | 7.0 | 0.00 | 0.00 | 0.00 | 90 | 1017.1 |
| 20260831020507 | 67 | 204 | 5.0 | 7.0 | 0.00 | 0.00 | 0.00 | 90 | 1017.1 |
| 20260831020007 | 67 | 201 | 5.0 | 7.0 | 0.00 | 0.00 | 0.00 | 90 | 1017.1 |
| 20260831015507 | 67 | 203 | 5.0 | 5.0 | 0.00 | 0.00 | 0.00 | 89 | 1017.1 |
| 20260831014507 | 67 | 198 | 5.0 | 5.0 | 0.00 | 0.00 | 0.00 | 89 | 1017.1 |
| 20260831014007 | 67 | 195 | 5.0 | 5.0 | 0.00 | 0.00 | 0.00 | 89 | 1017.1 |
| 20260831013507 | 67 | 212 | 5.0 | 5.0 | 0.00 | 0.00 | 0.00 | 89 | 1017.1 |
| 20260831012506 | 68 | 202 | 5.0 | 5.0 | 0.00 | 0.00 | 0.00 | 89 | 1017.1 |
| 20260831012007 | 68 | 214 | 2.0 | 5.0 | 0.00 | 0.00 | 0.00 | 89 | 1017.1 |
| 20260831011507 | 68 | 214 | 2.0 | 5.0 | 0.00 | 0.00 | 0.00 | 89 | 1017.1 |
| 20260831011007 | 68 | 202 | 2.0 | 5.0 | 0.00 | 0.00 | 0.00 | 89 | 1017.1 |
| 20260831010006 | 68 | 188 | 0.0 | 0.0 | 0.00 | 0.00 | 0.00 | 88 | 1017.1 |
| 20260831005506 | 68 | 199 | 0.0 | 2.0 | 0.00 | 0.00 | 0.00 | 88 | 1017.1 |
| 20260831005007 | 68 | 221 | 0.0 | 2.0 | 0.00 | 0.00 | 0.00 | 88 | 1016.6 |
| 20260831004507 | 68 | 203 | 2.0 | 5.0 | 0.00 | 0.00 | 0.00 | 88 | 1016.1 |
| 20260831004007 | 68 | 205 | 2.0 | 5.0 | 0.00 | 0.00 | 0.00 | 88 | 1016.1 |
| 20260831003507 | 68 | 204 | 3.0 | 5.0 | 0.00 | 0.00 | 0.00 | 88 | 1016.1 |
| 20260831003007 | 68 | 208 | 5.0 | 5.0 | 0.00 | 0.00 | 0.00 | 88 | 1016.1 |
| 20260831001007 | 68 | 199 | 5.0 | 5.0 | 0.00 | 0.00 | 0.00 | 88 | 1016.1 |
| 20260831000507 | 68 | 198 | 5.0 | 5.0 | 0.00 | 0.00 | 0.00 | 87 | 1016.1 |
| 20260830235506 | 69 | 208 | 5.0 | 7.0 | 0.00 | 0.00 | 0.00 | 87 | 1016.1 |
| 20260830235007 | 69 | 212 | 5.0 | 7.0 | 0.00 | 0.00 | 0.00 | 87 | 1016.1 |
| 20260830234507 | 69 | 211 | 5.0 | 7.0 | 0.00 | 0.00 | 0.00 | 87 | 1016.1 |
| 20260830234007 | 69 | 217 | 5.0 | 7.0 | 0.00 | 0.00 | 0.00 | 87 | 1016.1 |
| 20260830233507 | 69 | 217 | 5.0 | 7.0 | 0.00 | 0.00 | 0.00 | 87 | 1016.1 |
| 20260830233007 | 69 | 212 | 5.0 | 7.0 | 0.00 | 0.00 | 0.00 | 87 | 1016.1 |
| 20260830232507 | 69 | 213 | 5.0 | 7.0 | 0.00 | 0.00 | 0.00 | 87 | 1016.1 |
| 20260830232007 | 69 | 215 | 5.0 | 7.0 | 0.00 | 0.00 | 0.00 | 87 | 1016.1 |
| 20260830231506 | 69 | 209 | 5.0 | 7.0 | 0.00 | 0.00 | 0.00 | 86 | 1016.1 |
| 20260830231007 | 69 | 221 | 5.0 | 7.0 | 0.00 | 0.00 | 0.00 | 86 | 1016.1 |
| 20260830230507 | 69 | 234 | 5.0 | 7.0 | 0.00 | 0.00 | 0.00 | 86 | 1016.1 |
| 20260830230006 | 69 | 220 | 6.0 | 7.0 | 0.00 | 0.00 | 0.00 | 86 | 1016.1 |
| 20260830225507 | 69 | 227 | 6.0 | 7.0 | 0.00 | 0.00 | 0.00 | 86 | 1016.1 |
| 20260830225007 | 69 | 237 | 7.0 | 9.0 | 0.00 | 0.00 | 0.00 | 86 | 1016.1 |
| 20260830224507 | 69 | 233 | 9.0 | 9.0 | 0.00 | 0.00 | 0.00 | 86 | 1016.1 |
| 20260830223507 | 69 | 241 | 7.0 | 9.0 | 0.00 | 0.00 | 0.00 | 86 | 1016.1 |
| 20260830223007 | 69 | 247 | 7.0 | 9.0 | 0.00 | 0.00 | 0.00 | 86 | 1016.1 |
| 20260830222506 | 69 | 241 | 7.0 | 9.0 | 0.00 | 0.00 | 0.00 | 86 | 1016.1 |
| 20260830222006 | 70 | 252 | 7.0 | 9.0 | 0.00 | 0.00 | 0.00 | 86 | 1016.1 |
| 20260830221507 | 70 | 248 | 7.0 | 9.0 | 0.00 | 0.00 | 0.00 | 87 | 1016.1 |
| 20260830221007 | 70 | 247 | 7.0 | 9.0 | 0.00 | 0.00 | 0.00 | 87 | 1016.1 |
| 20260830220507 | 70 | 258 | 7.0 | 12.0 | 0.00 | 0.00 | 0.00 | 87 | 1016.1 |
| 20260830215507 | 70 | 269 | 12.0 | 16.0 | 0.00 | 0.00 | 0.00 | 88 | 1016.1 |
| 20260830214006 | 32 | 0 | 0.0 | 0.0 | 0.00 | 0.00 | 0.00 | 100 | 1016.1 |
| 20260830213007 | 32 | 0 | 0.0 | 0.0 | 0.00 | 0.00 | 0.00 | 100 | 1016.1 |
| 20260830212506 | 32 | 0 | 0.0 | 0.0 | 0.00 | 0.00 | 0.00 | 100 | 1016.1 |
| 20260830211506 | 32 | 0 | 0.0 | 0.0 | 0.00 | 0.00 | 0.00 | 100 | 1016.1 |
| 20260830211007 | 32 | 0 | 0.0 | 0.0 | 0.00 | 0.00 | 0.00 | 100 | 1016.1 |
| 20260830210508 | 32 | 0 | 0.0 | 0.0 | 0.00 | 0.00 | 0.00 | 100 | 1016.1 |
| 20260830210006 | 32 | 0 | 0.0 | 0.0 | 0.00 | 0.00 | 0.00 | 100 | 1016.1 |
| 20260830205506 | 32 | 0 | 0.0 | 0.0 | 0.00 | 0.00 | 0.00 | 100 | 1016.1 |
| 20260830205006 | 32 | 0 | 0.0 | 0.0 | 0.00 | 0.00 | 0.00 | 100 | 1016.1 |
| 20260830204506 | 32 | 0 | 0.0 | 0.0 | 0.00 | 0.00 | 0.00 | 100 | 1016.1 |
| 20260830204006 | 32 | 0 | 0.0 | 0.0 | 0.00 | 0.00 | 0.00 | 100 | 1016.1 |
| 20260830203507 | 32 | 0 | 0.0 | 0.0 | 0.00 | 0.00 | 0.00 | 100 | 1016.1 |
| 20260830203007 | 32 | 0 | 0.0 | 0.0 | 0.00 | 0.00 | 0.00 | 100 | 1016.1 |
| 20260830202506 | 32 | 0 | 0.0 | 0.0 | 0.00 | 0.00 | 0.00 | 100 | 1016.1 |
| 20260830202006 | 32 | 0 | 0.0 | 0.0 | 0.00 | 0.00 | 0.00 | 100 | 1016.1 |
| 20260830200506 | 32 | 0 | 0.0 | 0.0 | 0.00 | 0.00 | 0.00 | 100 | 1016.1 |
| 20260830200006 | 32 | 0 | 0.0 | 0.0 | 0.00 | 0.00 | 0.00 | 100 | 1016.1 |
| 20260830195506 | 32 | 0 | 0.0 | 0.0 | 0.00 | 0.00 | 0.00 | 100 | 1016.1 |
| 20260830195006 | 32 | 0 | 0.0 | 0.0 | 0.00 | 0.00 | 0.00 | 100 | 1016.1 |
| 20260830194506 | 32 | 0 | 0.0 | 0.0 | 0.00 | 0.00 | 0.00 | 100 | 1016.1 |
| 20260830194007 | 32 | 0 | 0.0 | 0.0 | 0.00 | 0.00 | 0.00 | 100 | 1016.1 |
| 20260830193507 | 32 | 0 | 0.0 | 0.0 | 0.00 | 0.00 | 0.00 | 100 | 1016.1 |
| 20260830193006 | 32 | 0 | 0.0 | 0.0 | 0.00 | 0.00 | 0.00 | 100 | 1016.1 |
| 20260830191007 | 32 | 0 | 0.0 | 0.0 | 0.00 | 0.00 | 0.00 | 100 | 1016.1 |
| 20260830190506 | 32 | 0 | 0.0 | 0.0 | 0.00 | 0.00 | 0.00 | 100 | 1016.1 |
| 20260830190006 | 32 | 0 | 0.0 | 0.0 | 0.00 | 0.00 | 0.00 | 100 | 1016.1 |
| 20260830185506 | 32 | 0 | 0.0 | 0.0 | 0.00 | 0.00 | 0.00 | 100 | 1016.1 |
| 20260830185006 | 32 | 0 | 0.0 | 0.0 | 0.00 | 0.00 | 0.00 | 100 | 1016.1 |
| 20260830184506 | 32 | 0 | 0.0 | 0.0 | 0.00 | 0.00 | 0.00 | 100 | 1016.1 |
| 20260830184006 | 32 | 0 | 0.0 | 0.0 | 0.00 | 0.00 | 0.00 | 100 | 1016.1 |
| 20260830183507 | 32 | 0 | 0.0 | 0.0 | 0.00 | 0.00 | 0.00 | 100 | 1016.1 |
| 20260830183006 | 32 | 0 | 0.0 | 0.0 | 0.00 | 0.00 | 0.00 | 100 | 1016.1 |
| 20260830182506 | 32 | 0 | 0.0 | 0.0 | 0.00 | 0.00 | 0.00 | 100 | 1016.1 |
| 20260830181506 | 32 | 0 | 0.0 | 0.0 | 0.00 | 0.00 | 0.00 | 100 | 1016.1 |
| 20260830180506 | 32 | 0 | 0.0 | 0.0 | 0.00 | 0.00 | 0.00 | 100 | 1016.1 |
| 20260830180006 | 32 | 0 | 0.0 | 0.0 | 0.00 | 0.00 | 0.00 | 100 | 1016.1 |
| 20260830175505 | 32 | 0 | 0.0 | 0.0 | 0.00 | 0.00 | 0.00 | 100 | 1016.1 |
| 20260830175006 | 32 | 0 | 0.0 | 0.0 | 0.00 | 0.00 | 0.00 | 100 | 1016.1 |
| 20260830174506 | 32 | 0 | 0.0 | 0.0 | 0.00 | 0.00 | 0.00 | 100 | 1016.1 |
| 20260830174006 | 32 | 0 | 0.0 | 0.0 | 0.00 | 0.00 | 0.00 | 100 | 1016.1 |
| 20260830173507 | 32 | 0 | 0.0 | 0.0 | 0.00 | 0.00 | 0.00 | 100 | 1016.1 |
| 20260830173007 | 32 | 0 | 0.0 | 0.0 | 0.00 | 0.00 | 0.00 | 100 | 1016.1 |
| 20260830172506 | 32 | 0 | 0.0 | 0.0 | 0.00 | 0.00 | 0.00 | 100 | 1016.1 |
| 20260830171506 | 32 | 0 | 0.0 | 0.0 | 0.00 | 0.00 | 0.00 | 100 | 1016.1 |
| 20260830170506 | 32 | 0 | 0.0 | 0.0 | 0.00 | 0.00 | 0.00 | 100 | 1016.1 |
| 20260830170006 | 32 | 0 | 0.0 | 0.0 | 0.00 | 0.00 | 0.00 | 100 | 1016.1 |
| 20260830165507 | 32 | 0 | 0.0 | 0.0 | 0.00 | 0.00 | 0.00 | 100 | 1016.1 |
| 20260830165006 | 32 | 0 | 0.0 | 0.0 | 0.00 | 0.00 | 0.00 | 100 | 1016.1 |
| 20260830164505 | 32 | 0 | 0.0 | 0.0 | 0.00 | 0.00 | 0.00 | 100 | 1016.1 |
| 20260830164006 | 32 | 0 | 0.0 | 0.0 | 0.00 | 0.00 | 0.00 | 100 | 1016.1 |
| 20260830163006 | 32 | 0 | 0.0 | 0.0 | 0.00 | 0.00 | 0.00 | 100 | 1016.1 |
| 20260830162506 | 32 | 0 | 0.0 | 0.0 | 0.00 | 0.00 | 0.00 | 100 | 1016.1 |
| 20260830161505 | 32 | 0 | 0.0 | 0.0 | 0.00 | 0.00 | 0.00 | 100 | 1016.1 |
| 20260830160506 | 32 | 0 | 0.0 | 0.0 | 0.00 | 0.00 | 0.00 | 100 | 1016.1 |
| 20260830160006 | 32 | 0 | 0.0 | 0.0 | 0.00 | 0.00 | 0.00 | 100 | 1016.1 |
| 20260830155505 | 32 | 0 | 0.0 | 0.0 | 0.00 | 0.00 | 0.00 | 100 | 1016.1 |
| 20260830155006 | 32 | 0 | 0.0 | 0.0 | 0.00 | 0.00 | 0.00 | 100 | 1016.1 |
| 20260830154505 | 32 | 0 | 0.0 | 0.0 | 0.00 | 0.00 | 0.00 | 100 | 1016.1 |
| 20260830154006 | 32 | 0 | 0.0 | 0.0 | 0.00 | 0.00 | 0.00 | 100 | 1016.1 |
| 20260830153506 | 32 | 0 | 0.0 | 0.0 | 0.00 | 0.00 | 0.00 | 100 | 1016.1 |
| 20260830153006 | 32 | 0 | 0.0 | 0.0 | 0.00 | 0.00 | 0.00 | 100 | 1016.1 |
| 20260830152006 | 32 | 0 | 0.0 | 0.0 | 0.00 | 0.00 | 0.00 | 100 | 1016.1 |
| 20260830151506 | 32 | 0 | 0.0 | 0.0 | 0.00 | 0.00 | 0.00 | 100 | 1016.1 |
| 20260830150006 | 32 | 0 | 0.0 | 0.0 | 0.00 | 0.00 | 0.00 | 100 | 1016.1 |
| 20260830145005 | 32 | 0 | 0.0 | 0.0 | 0.00 | 0.00 | 0.00 | 100 | 1016.1 |
| 20260830144506 | 32 | 0 | 0.0 | 0.0 | 0.00 | 0.00 | 0.00 | 100 | 1016.1 |
| 20260830143006 | 32 | 0 | 0.0 | 0.0 | 0.00 | 0.00 | 0.00 | 100 | 1016.1 |
| 20260830142505 | 32 | 0 | 0.0 | 0.0 | 0.00 | 0.00 | 0.00 | 100 | 1016.1 |
| 20260830142006 | 32 | 0 | 0.0 | 0.0 | 0.00 | 0.00 | 0.00 | 100 | 1016.1 |
| 20260830141505 | 32 | 0 | 0.0 | 0.0 | 0.00 | 0.00 | 0.00 | 100 | 1016.1 |
| 20260830141005 | 32 | 0 | 0.0 | 0.0 | 0.00 | 0.00 | 0.00 | 100 | 1016.1 |
| 20260830140506 | 32 | 0 | 0.0 | 0.0 | 0.00 | 0.00 | 0.00 | 100 | 1016.1 |
| 20260830140005 | 32 | 0 | 0.0 | 0.0 | 0.00 | 0.00 | 0.00 | 100 | 1016.1 |
| 20260830135506 | 32 | 0 | 0.0 | 0.0 | 0.00 | 0.00 | 0.00 | 100 | 1016.1 |
| 20260830135006 | 32 | 0 | 0.0 | 0.0 | 0.00 | 0.00 | 0.00 | 100 | 1016.1 |
| 20260830134505 | 32 | 0 | 0.0 | 0.0 | 0.00 | 0.00 | 0.00 | 100 | 1016.1 |
| 20260830134005 | 32 | 0 | 0.0 | 0.0 | 0.00 | 0.00 | 0.00 | 100 | 1016.1 |
| 20260830133506 | 32 | 0 | 0.0 | 0.0 | 0.00 | 0.00 | 0.00 | 100 | 1016.1 |
| 20260830133006 | 32 | 0 | 0.0 | 0.0 | 0.00 | 0.00 | 0.00 | 100 | 1016.1 |
| 20260830132505 | 32 | 0 | 0.0 | 0.0 | 0.00 | 0.00 | 0.00 | 100 | 1016.1 |
| 20260830132005 | 32 | 0 | 0.0 | 0.0 | 0.00 | 0.00 | 0.00 | 100 | 1016.1 |
| 20260830131506 | 32 | 0 | 0.0 | 0.0 | 0.00 | 0.00 | 0.00 | 100 | 1016.1 |
| 20260830131005 | 32 | 0 | 0.0 | 0.0 | 0.00 | 0.00 | 0.00 | 100 | 1016.1 |
| 20260830130506 | 32 | 0 | 0.0 | 0.0 | 0.00 | 0.00 | 0.00 | 100 | 1016.1 |
| 20260830130005 | 32 | 0 | 0.0 | 0.0 | 0.00 | 0.00 | 0.00 | 100 | 1016.1 |
| 20260830125505 | 32 | 0 | 0.0 | 0.0 | 0.00 | 0.00 | 0.00 | 100 | 1016.1 |
| 20260830125005 | 32 | 0 | 0.0 | 0.0 | 0.00 | 0.00 | 0.00 | 100 | 1016.1 |
| 20260830124505 | 32 | 0 | 0.0 | 0.0 | 0.00 | 0.00 | 0.00 | 100 | 1016.1 |
| 20260830124006 | 32 | 0 | 0.0 | 0.0 | 0.00 | 0.00 | 0.00 | 100 | 1016.1 |
| 20260830123506 | 32 | 0 | 0.0 | 0.0 | 0.00 | 0.00 | 0.00 | 100 | 1016.1 |
| 20260830123006 | 32 | 0 | 0.0 | 0.0 | 0.00 | 0.00 | 0.00 | 100 | 1016.1 |
| 20260830122511 | 32 | 0 | 0.0 | 0.0 | 0.00 | 0.00 | 0.00 | 100 | 1016.1 |
| 20260830122006 | 32 | 0 | 0.0 | 0.0 | 0.00 | 0.00 | 0.00 | 100 | 1016.1 |
| 20260830121506 | 32 | 0 | 0.0 | 0.0 | 0.00 | 0.00 | 0.00 | 100 | 1016.1 |
| 20260830121006 | 32 | 0 | 0.0 | 0.0 | 0.00 | 0.00 | 0.00 | 100 | 1016.1 |
| 20260830120506 | 32 | 0 | 0.0 | 0.0 | 0.00 | 0.00 | 0.00 | 100 | 1016.1 |
| 20260830120006 | 32 | 0 | 0.0 | 0.0 | 0.00 | 0.00 | 0.00 | 100 | 1016.1 |
| 20260830115505 | 32 | 0 | 0.0 | 0.0 | 0.00 | 0.00 | 0.00 | 100 | 1016.1 |
| 20260830114505 | 32 | 0 | 0.0 | 0.0 | 0.00 | 0.00 | 0.00 | 100 | 1016.1 |
| 20260830114006 | 32 | 0 | 0.0 | 0.0 | 0.00 | 0.00 | 0.00 | 100 | 1016.1 |
| 20260830113506 | 32 | 0 | 0.0 | 0.0 | 0.00 | 0.00 | 0.00 | 100 | 1016.1 |
| 20260830112505 | 32 | 0 | 0.0 | 0.0 | 0.00 | 0.00 | 0.00 | 100 | 1016.1 |
| 20260830112006 | 32 | 0 | 0.0 | 0.0 | 0.00 | 0.00 | 0.00 | 100 | 1016.1 |
| 20260830111506 | 32 | 0 | 0.0 | 0.0 | 0.00 | 0.00 | 0.00 | 100 | 1016.1 |
| 20260830111006 | 32 | 0 | 0.0 | 0.0 | 0.00 | 0.00 | 0.00 | 100 | 1016.1 |
| 20260830110506 | 32 | 0 | 0.0 | 0.0 | 0.00 | 0.00 | 0.00 | 100 | 1016.1 |
| 20260830110006 | 32 | 0 | 0.0 | 0.0 | 0.00 | 0.00 | 0.00 | 100 | 1016.1 |
| 20260830105505 | 32 | 0 | 0.0 | 0.0 | 0.00 | 0.00 | 0.00 | 100 | 1016.1 |
| 20260830104505 | 32 | 0 | 0.0 | 0.0 | 0.00 | 0.00 | 0.00 | 100 | 1016.1 |
| 20260830104006 | 32 | 0 | 0.0 | 0.0 | 0.00 | 0.00 | 0.00 | 100 | 1016.1 |
| 20260830103505 | 32 | 0 | 0.0 | 0.0 | 0.00 | 0.00 | 0.00 | 100 | 1016.1 |
| 20260830103006 | 32 | 0 | 0.0 | 0.0 | 0.00 | 0.00 | 0.00 | 100 | 1016.1 |
| 20260830102505 | 32 | 0 | 0.0 | 0.0 | 0.00 | 0.00 | 0.00 | 100 | 1016.1 |
| 20260830102006 | 32 | 0 | 0.0 | 0.0 | 0.00 | 0.00 | 0.00 | 100 | 1016.1 |
| 20260830101506 | 32 | 0 | 0.0 | 0.0 | 0.00 | 0.00 | 0.00 | 100 | 1016.1 |
| 20260830100505 | 32 | 0 | 0.0 | 0.0 | 0.00 | 0.00 | 0.00 | 100 | 1016.1 |
| 20260830100006 | 32 | 0 | 0.0 | 0.0 | 0.00 | 0.00 | 0.00 | 100 | 1016.1 |
| 20260830095505 | 32 | 0 | 0.0 | 0.0 | 0.00 | 0.00 | 0.00 | 100 | 1016.1 |
| 20260830095007 | 32 | 0 | 0.0 | 0.0 | 0.00 | 0.00 | 0.00 | 100 | 1016.1 |
| 20260830094505 | 32 | 0 | 0.0 | 0.0 | 0.00 | 0.00 | 0.00 | 100 | 1016.1 |
| 20260830093507 | 32 | 0 | 0.0 | 0.0 | 0.00 | 0.00 | 0.00 | 100 | 1016.1 |
| 20260830093007 | 32 | 0 | 0.0 | 0.0 | 0.00 | 0.00 | 0.00 | 100 | 1016.1 |
| 20260830092507 | 32 | 0 | 0.0 | 0.0 | 0.00 | 0.00 | 0.00 | 100 | 1016.1 |
| 20260830092007 | 32 | 0 | 0.0 | 0.0 | 0.00 | 0.00 | 0.00 | 100 | 1016.1 |
| 20260830091008 | 32 | 0 | 0.0 | 0.0 | 0.00 | 0.00 | 0.00 | 100 | 1016.1 |
| 20260830090007 | 32 | 0 | 0.0 | 0.0 | 0.00 | 0.00 | 0.00 | 100 | 1016.1 |
| 20260830085008 | 32 | 0 | 0.0 | 0.0 | 0.00 | 0.00 | 0.00 | 100 | 1016.1 |
| 20260830084507 | 32 | 0 | 0.0 | 0.0 | 0.00 | 0.00 | 0.00 | 100 | 1016.1 |
| 20260830084007 | 32 | 0 | 0.0 | 0.0 | 0.00 | 0.00 | 0.00 | 100 | 1016.1 |
| 20260830083507 | 32 | 0 | 0.0 | 0.0 | 0.00 | 0.00 | 0.00 | 100 | 1016.1 |
| 20260830083007 | 32 | 0 | 0.0 | 0.0 | 0.00 | 0.00 | 0.00 | 100 | 1016.1 |
| 20260830082506 | 32 | 0 | 0.0 | 0.0 | 0.00 | 0.00 | 0.00 | 100 | 1016.1 |
| 20260830082007 | 32 | 0 | 0.0 | 0.0 | 0.00 | 0.00 | 0.00 | 100 | 1016.1 |
| 20260830081507 | 32 | 0 | 0.0 | 0.0 | 0.00 | 0.00 | 0.00 | 100 | 1016.1 |
| 20260830080507 | 32 | 0 | 0.0 | 0.0 | 0.00 | 0.00 | 0.00 | 100 | 1016.1 |
| 20260830080007 | 32 | 0 | 0.0 | 0.0 | 0.00 | 0.00 | 0.00 | 100 | 1016.1 |
| 20260830075507 | 32 | 0 | 0.0 | 0.0 | 0.00 | 0.00 | 0.00 | 100 | 1016.1 |
| 20260830075007 | 32 | 0 | 0.0 | 0.0 | 0.00 | 0.00 | 0.00 | 100 | 1016.1 |
| 20260830074507 | 32 | 0 | 0.0 | 0.0 | 0.00 | 0.00 | 0.00 | 100 | 1016.1 |
| 20260830074007 | 32 | 0 | 0.0 | 0.0 | 0.00 | 0.00 | 0.00 | 100 | 1016.1 |
| 20260830073508 | 32 | 0 | 0.0 | 0.0 | 0.00 | 0.00 | 0.00 | 100 | 1016.1 |
| 20260830073007 | 32 | 0 | 0.0 | 0.0 | 0.00 | 0.00 | 0.00 | 100 | 1016.1 |
| 20260830072506 | 32 | 0 | 0.0 | 0.0 | 0.00 | 0.00 | 0.00 | 100 | 1016.1 |
| 20260830072007 | 32 | 0 | 0.0 | 0.0 | 0.00 | 0.00 | 0.00 | 100 | 1016.1 |
| 20260830071007 | 32 | 0 | 0.0 | 0.0 | 0.00 | 0.00 | 0.00 | 100 | 1016.1 |
| 20260830070507 | 32 | 0 | 0.0 | 0.0 | 0.00 | 0.00 | 0.00 | 100 | 1016.1 |
| 20260830070007 | 32 | 0 | 0.0 | 0.0 | 0.00 | 0.00 | 0.00 | 100 | 1016.1 |
| 20260830065507 | 32 | 0 | 0.0 | 0.0 | 0.00 | 0.00 | 0.00 | 100 | 1016.1 |
| 20260830064506 | 32 | 0 | 0.0 | 0.0 | 0.00 | 0.00 | 0.00 | 100 | 1016.1 |
| 20260830064006 | 32 | 0 | 0.0 | 0.0 | 0.00 | 0.00 | 0.00 | 100 | 1016.1 |
| 20260830063508 | 32 | 0 | 0.0 | 0.0 | 0.00 | 0.00 | 0.00 | 100 | 1016.1 |
| 20260830063008 | 32 | 0 | 0.0 | 0.0 | 0.00 | 0.00 | 0.00 | 100 | 1016.1 |
| 20260830062007 | 32 | 0 | 0.0 | 0.0 | 0.00 | 0.00 | 0.00 | 100 | 1016.1 |
| 20260830061508 | 32 | 0 | 0.0 | 0.0 | 0.00 | 0.00 | 0.00 | 100 | 1016.1 |
| 20260830061007 | 32 | 0 | 0.0 | 0.0 | 0.00 | 0.00 | 0.00 | 100 | 1016.1 |
| 20260830060507 | 32 | 0 | 0.0 | 0.0 | 0.00 | 0.00 | 0.00 | 100 | 1016.1 |
| 20260830060007 | 32 | 0 | 0.0 | 0.0 | 0.00 | 0.00 | 0.00 | 100 | 1016.1 |
| 20260830055506 | 32 | 0 | 0.0 | 0.0 | 0.00 | 0.00 | 0.00 | 100 | 1016.1 |
| 20260830055007 | 32 | 0 | 0.0 | 0.0 | 0.00 | 0.00 | 0.00 | 100 | 1016.1 |
| 20260830054507 | 32 | 0 | 0.0 | 0.0 | 0.00 | 0.00 | 0.00 | 100 | 1016.1 |
| 20260830052507 | 63 | 0 | 5.0 | 7.0 | 0.00 | 0.00 | 0.00 | 91 | 1016.1 |
| 20260830052008 | 63 | 0 | 5.0 | 7.0 | 0.00 | 0.00 | 0.00 | 91 | 1016.1 |
| 20260830051507 | 63 | 0 | 5.0 | 7.0 | 0.00 | 0.00 | 0.00 | 91 | 1016.1 |
| 20260830051009 | 63 | 0 | 5.0 | 7.0 | 0.00 | 0.00 | 0.00 | 91 | 1016.1 |
| 20260830050507 | 63 | 0 | 5.0 | 7.0 | 0.00 | 0.00 | 0.00 | 91 | 1016.1 |
| 20260830050006 | 63 | 0 | 5.0 | 7.0 | 0.00 | 0.00 | 0.00 | 91 | 1016.1 |
| 20260830045507 | 63 | 0 | 5.0 | 7.0 | 0.00 | 0.00 | 0.00 | 91 | 1016.1 |
| 20260830045008 | 63 | 0 | 5.0 | 7.0 | 0.00 | 0.00 | 0.00 | 91 | 1016.1 |
| 20260830044506 | 63 | 0 | 5.0 | 7.0 | 0.00 | 0.00 | 0.00 | 91 | 1016.1 |
| 20260830044008 | 63 | 0 | 5.0 | 7.0 | 0.00 | 0.00 | 0.00 | 91 | 1016.1 |
| 20260830043508 | 63 | 0 | 5.0 | 7.0 | 0.00 | 0.00 | 0.00 | 91 | 1016.1 |
| 20260830043008 | 63 | 0 | 5.0 | 7.0 | 0.00 | 0.00 | 0.00 | 91 | 1016.1 |
| 20260830042506 | 63 | 0 | 5.0 | 7.0 | 0.00 | 0.00 | 0.00 | 91 | 1016.1 |
| 20260830042008 | 63 | 0 | 5.0 | 7.0 | 0.00 | 0.00 | 0.00 | 91 | 1016.1 |
| 20260830041507 | 63 | 0 | 5.0 | 7.0 | 0.00 | 0.00 | 0.00 | 91 | 1016.1 |
| 20260830040007 | 63 | 0 | 5.0 | 7.0 | 0.00 | 0.00 | 0.00 | 91 | 1016.1 |
| 20260830035507 | 63 | 0 | 5.0 | 7.0 | 0.00 | 0.00 | 0.00 | 91 | 1016.1 |
| 20260830035008 | 63 | 0 | 5.0 | 7.0 | 0.00 | 0.00 | 0.00 | 91 | 1016.1 |
| 20260830034507 | 63 | 0 | 5.0 | 7.0 | 0.00 | 0.00 | 0.00 | 91 | 1016.1 |
| 20260830033507 | 63 | 0 | 5.0 | 7.0 | 0.00 | 0.00 | 0.00 | 91 | 1016.1 |
| 20260830033008 | 63 | 0 | 5.0 | 7.0 | 0.00 | 0.00 | 0.00 | 91 | 1016.1 |
| 20260830032506 | 63 | 0 | 5.0 | 7.0 | 0.00 | 0.00 | 0.00 | 91 | 1016.1 |
| 20260830032008 | 63 | 0 | 5.0 | 7.0 | 0.00 | 0.00 | 0.00 | 91 | 1016.1 |
| 20260830031507 | 63 | 0 | 5.0 | 7.0 | 0.00 | 0.00 | 0.00 | 91 | 1016.1 |
| 20260830031009 | 63 | 0 | 5.0 | 7.0 | 0.00 | 0.00 | 0.00 | 91 | 1016.1 |